User: anonymous   Login
Location: Mount Wilson Observatory
(34.2257°N, 118.0571°W)
Time: 02:56:13
(UTC-08:00)
Language:

ATLAS 3B CENTAUR R/B - Orbit

View from above orbital plane
View from above orbital plane
View from above satellite
View from above satellite

Ground track
Ground track

The orbit data is extracted from the following two-line orbital elements,

1 28118U 03057B   16043.82679173  .00124769  00000-0  24123-2 0  9995
2 28118  28.1205 277.2509 3386263  51.5308 334.3533  8.69340939245236
Epoch (UTC): 12 February 2016 19:50:34
Eccentricity: 0.3386263
inclination: 28.1205°
perigee height: 229 km
apogee height: 6996 km
right ascension of ascending node: 277.2509°
argument of perigee: 51.5308°
revolutions per day: 8.69340939
mean anomaly at epoch: 334.3533°
orbit number at epoch: 24523

The dashed part of the orbit path shows where the satellite is in the earth's shadow,  

DLR